Location: Unspecified
(0.0000°N, 0.0000°E)
Time: 20:25:38
(UTC+00:00)

Vanguard 1 - Visible Passes

Search period start: 02 August 2015 00:00
Search period end: 12 August 2015 00:00
Orbit: 649 x 3836 km, 34.3° (Epoch: 02 August)

Date Brightness Start Highest point End Pass type
(mag) Time Alt. Az. Time Alt. Az. Time Alt. Az.
02 Aug 12.9 01:29:28 45° NNE 01:29:28 45° NNE 01:44:00 10° NE visible
02 Aug 13.4 03:42:11 20° WNW 03:52:36 29° NNW 04:10:56 10° NNE visible
02 Aug 13.9 23:36:28 12° ENE 23:36:28 12° ENE 23:37:27 10° ENE visible
03 Aug 12.9 01:49:10 44° N 01:49:10 44° N 02:05:38 10° NE visible
03 Aug 13.6 04:01:52 11° WNW 04:16:05 24° NNW 04:32:58 10° NNE visible
03 Aug 13.7 23:56:09 18° NE 23:56:09 18° NE 23:59:43 10° NE visible
04 Aug 12.9 02:08:50 38° NNW 02:08:50 38° NNW 02:27:12 10° NE visible
04 Aug 13.8 04:25:20 10° NW 04:39:53 21° N 04:55:31 10° NE visible
05 Aug 13.5 00:15:48 23° NE 00:15:48 23° NE 00:21:38 10° NE visible
05 Aug 13.1 02:28:30 31° NNW 02:30:53 31° NNW 02:48:49 10° NE visible
05 Aug 13.9 04:49:34 10° NW 05:03:52 20° N 05:18:47 10° NE visible
06 Aug 13.3 00:35:27 27° NNE 00:35:27 27° NNE 00:43:20 10° NE visible
06 Aug 13.3 02:48:09 22° NW 02:54:01 26° NNW 03:10:39 10° NNE visible
06 Aug 14.1 05:13:24 10° NW 05:27:56 20° N 05:42:45 10° NE visible
07 Aug 13.2 00:55:05 30° NNE 00:55:05 30° NNE 01:04:52 10° NE visible
07 Aug 13.5 03:07:47 15° NW 03:17:29 22° N 03:32:54 10° NNE visible
07 Aug 14.1 05:36:35 10° NNW 05:51:57 21° N 06:07:11 10° NE visible
08 Aug 13.2 01:14:42 29° N 01:14:42 29° N 01:26:22 10° NE visible
08 Aug 13.7 03:28:49 10° NW 03:41:12 20° N 03:55:49 10° NE visible
09 Aug 13.2 01:34:19 26° N 01:34:19 26° N 01:47:56 10° NNE visible
09 Aug 13.9 03:52:33 10° NW 04:05:06 19° N 04:19:36 10° NE visible
09 Aug 13.7 23:41:15 13° NE 23:41:15 13° NE 23:42:54 10° NE visible
10 Aug 13.4 01:53:57 21° NNW 01:56:04 22° NNW 02:09:45 10° NNE visible
10 Aug 14.0 04:15:49 10° NNW 04:29:03 19° N 04:44:12 10° NE visible
11 Aug 13.6 00:00:52 16° NNE 00:00:52 16° NNE 00:04:16 10° NE visible
11 Aug 13.5 02:13:34 16° NNW 02:19:22 19° N 02:32:03 10° NNE visible
11 Aug 14.0 04:38:25 10° NNW 04:52:57 21° NNE 05:09:10 10° ENE visible
